This is the latest recevied weather packets stored in our database for station/object PP5CFL-13. If no packets are shown the sender has not sent any weather packets the latest 10 day(s).
| Time | Temp. | Humidity | Pressure | Rain* | Wind** | Luminosity | Snow |
|---|---|---|---|---|---|---|---|
| 1778086424 | 25° C | 90% | 1020.2 hPa | - | - | - | - |
| 1778086124 | 25° C | 92% | 1020.3 hPa | - | - | - | - |
| 1778085824 | 25° C | 91% | 1020.3 hPa | - | - | - | - |
| 1778085524 | 25° C | 89% | 1020.4 hPa | - | - | - | - |
| 1778085224 | 25.56° C | 88% | 1020.5 hPa | - | - | - | - |
| 1778084924 | 25.56° C | 87% | 1020.7 hPa | - | - | - | - |
| 1778084624 | 25° C | 89% | 1020.7 hPa | - | - | - | - |
| 1778084324 | 25.56° C | 89% | 1020.9 hPa | - | - | - | - |
| 1778084024 | 25.56° C | 89% | 1020.9 hPa | - | - | - | - |
| 1778083724 | 25° C | 93% | 1020.9 hPa | - | - | - | - |
| 1778083424 | 23.89° C | 98% | 1021 hPa | - | - | - | - |
| 1778083124 | 23.89° C | 98% | 1021.1 hPa | - | - | - | - |
| 1778082824 | 23.89° C | 98% | 1021.1 hPa | - | - | - | - |
| 1778082524 | 23.89° C | 97% | 1021.4 hPa | - | - | - | - |
| 1778082224 | 23.89° C | 96% | 1021.4 hPa | - | - | - | - |
| 1778081924 | 23.89° C | 96% | 1021.5 hPa | - | - | - | - |
| 1778081624 | 23.89° C | 97% | 1021.6 hPa | - | - | - | - |
| 1778081324 | 23.89° C | 97% | 1021.6 hPa | - | - | - | - |
| 1778081024 | 23.89° C | 97% | 1021.7 hPa | - | - | - | - |
| 1778080724 | 23.89° C | 97% | 1021.9 hPa | - | - | - | - |
| 1778080424 | 23.89° C | 98% | 1022 hPa | - | - | - | - |
| 1778080124 | 23.89° C | 98% | 1021.9 hPa | - | - | - | - |
| 1778079824 | 23.89° C | 99% | 1022.1 hPa | - | - | - | - |
| 1778079524 | 23.89° C | 10% | - | - | - | - | - |
| 1778079224 | 23.33° C | 10% | - | - | - | - | - |
* Rain since midnight (hover to see other rain measurements)
** Current wind speed in m/s (hover to see current wind gust speed)